Time,TemperatureF,DewpointF,PressureIn,WindDirection,WindDirectionDegrees,WindSpeedMPH,WindSpeedGustMPH,Humidity,HourlyPrecipIn,Conditions,Clouds,dailyrainin,SoftwareType,DateUTC
2013-04-18 00:02:00,52.0,36.0,30.29,ENE,61,1.0,2.0,55,0.00,,,0.00,,2013-04-18 07:02:00,
2013-04-18 00:11:00,52.0,35.0,30.29,ENE,62,1.0,2.0,53,0.00,,,0.00,,2013-04-18 07:11:00,
2013-04-18 00:22:00,52.0,35.0,30.29,ENE,62,1.0,2.0,53,0.00,,,0.00,,2013-04-18 07:22:00,
2013-04-18 00:32:00,52.0,34.0,30.29,NE,55,1.0,2.0,50,0.00,,,0.00,,2013-04-18 07:32:00,
2013-04-18 00:42:00,53.0,32.0,30.29,West,277,0.0,0.0,45,0.00,,,0.00,,2013-04-18 07:42:00,
2013-04-18 00:52:00,53.0,32.0,30.29,West,277,0.0,0.0,45,0.00,,,0.00,,2013-04-18 07:52:00,
2013-04-18 01:02:00,54.0,31.0,30.29,WNW,286,0.0,0.0,41,0.00,,,0.00,,2013-04-18 08:02:00,
2013-04-18 01:12:00,54.0,31.0,30.29,ENE,78,1.0,3.0,42,0.00,,,0.00,,2013-04-18 08:12:00,
2013-04-18 01:22:00,54.0,31.0,30.29,ENE,78,1.0,3.0,42,0.00,,,0.00,,2013-04-18 08:22:00,
2013-04-18 01:32:00,54.0,31.0,30.29,NE,36,1.0,2.0,41,0.00,,,0.00,,2013-04-18 08:32:00,
2013-04-18 01:42:00,54.0,30.0,30.28,NE,39,2.0,3.0,40,0.00,,,0.00,,2013-04-18 08:42:00,
2013-04-18 01:52:00,54.0,30.0,30.28,NE,39,2.0,3.0,40,0.00,,,0.00,,2013-04-18 08:52:00,
2013-04-18 02:02:00,54.0,33.0,30.29,NNE,13,1.0,3.0,45,0.00,,,0.00,,2013-04-18 09:02:00,
2013-04-18 02:11:00,53.0,34.0,30.28,ENE,65,1.0,3.0,48,0.00,,,0.00,,2013-04-18 09:11:00,
2013-04-18 02:22:00,53.0,34.0,30.28,ENE,65,1.0,3.0,48,0.00,,,0.00,,2013-04-18 09:22:00,
2013-04-18 02:32:00,52.0,33.0,30.28,NNE,26,1.0,3.0,49,0.00,,,0.00,,2013-04-18 09:32:00,
2013-04-18 02:42:00,52.0,33.0,30.28,NE,55,1.0,2.0,48,0.00,,,0.00,,2013-04-18 09:42:00,
2013-04-18 02:52:00,52.0,33.0,30.28,NE,55,1.0,2.0,48,0.00,,,0.00,,2013-04-18 09:52:00,
2013-04-18 03:03:00,52.0,30.0,30.28,ENE,63,1.0,2.0,43,0.00,,,0.00,,2013-04-18 10:03:00,
2013-04-18 03:12:00,52.0,30.0,30.28,ENE,63,1.0,2.0,43,0.00,,,0.00,,2013-04-18 10:12:00,
2013-04-18 03:22:00,52.0,29.0,30.27,East,79,1.0,3.0,41,0.00,,,0.00,,2013-04-18 10:22:00,
2013-04-18 03:32:00,54.0,27.0,30.27,SE,125,2.0,4.0,35,0.00,,,0.00,,2013-04-18 10:32:00,
2013-04-18 03:42:00,54.0,27.0,30.27,SE,125,2.0,4.0,35,0.00,,,0.00,,2013-04-18 10:42:00,
2013-04-18 04:02:00,57.0,26.0,30.27,SSW,205,2.0,5.0,30,0.00,,,0.00,,2013-04-18 11:02:00,
2013-04-18 04:12:00,57.0,26.0,30.27,SSW,202,1.0,7.0,30,0.00,,,0.00,,2013-04-18 11:12:00,
2013-04-18 04:32:00,56.0,27.0,30.28,WSW,255,1.0,4.0,33,0.00,,,0.00,,2013-04-18 11:32:00,
2013-04-18 04:52:00,55.0,28.0,30.27,NW,325,1.0,3.0,35,0.00,,,0.00,,2013-04-18 11:52:00,
2013-04-18 05:02:00,54.0,28.0,30.27,SSE,164,0.0,3.0,37,0.00,,,0.00,,2013-04-18 12:02:00,
2013-04-18 05:11:00,54.0,28.0,30.27,SSE,164,0.0,3.0,37,0.00,,,0.00,,2013-04-18 12:11:00,
2013-04-18 05:22:00,54.0,28.0,30.27,ENE,61,1.0,4.0,37,0.00,,,0.00,,2013-04-18 12:22:00,
2013-04-18 05:32:00,54.0,28.0,30.28,East,94,1.0,3.0,36,0.00,,,0.00,,2013-04-18 12:32:00,
2013-04-18 05:42:00,54.0,28.0,30.28,East,94,1.0,3.0,36,0.00,,,0.00,,2013-04-18 12:42:00,
2013-04-18 05:52:00,54.0,29.0,30.28,East,94,1.0,2.0,38,0.00,,,0.00,,2013-04-18 12:52:00,
2013-04-18 06:02:00,54.0,29.0,30.28,East,86,1.0,2.0,38,0.00,,,0.00,,2013-04-18 13:02:00,
2013-04-18 06:12:00,54.0,29.0,30.28,East,86,1.0,2.0,38,0.00,,,0.00,,2013-04-18 13:12:00,
2013-04-18 06:22:00,53.0,29.0,30.28,ENE,65,1.0,3.0,40,0.00,,,0.00,,2013-04-18 13:22:00,
2013-04-18 06:32:00,53.0,28.0,30.29,ENE,65,1.0,3.0,38,0.00,,,0.00,,2013-04-18 13:32:00,
2013-04-18 06:42:00,53.0,29.0,30.29,NNE,22,1.0,2.0,39,0.00,,,0.00,,2013-04-18 13:42:00,
2013-04-18 06:52:00,53.0,29.0,30.29,NNE,22,1.0,2.0,39,0.00,,,0.00,,2013-04-18 13:52:00,
2013-04-18 07:02:00,54.0,30.0,30.29,NE,40,1.0,2.0,39,0.00,,,0.00,,2013-04-18 14:02:00,
2013-04-18 07:12:00,54.0,31.0,30.29,ENE,66,1.0,3.0,41,0.00,,,0.00,,2013-04-18 14:12:00,
2013-04-18 07:22:00,54.0,31.0,30.29,ENE,66,1.0,3.0,41,0.00,,,0.00,,2013-04-18 14:22:00,
2013-04-18 07:32:00,54.0,30.0,30.29,ENE,69,1.0,3.0,40,0.00,,,0.00,,2013-04-18 14:32:00,
2013-04-18 07:42:00,54.0,30.0,30.29,ENE,69,1.0,3.0,40,0.00,,,0.00,,2013-04-18 14:42:00,
2013-04-18 07:52:00,55.0,31.0,30.30,ENE,73,1.0,3.0,39,0.00,,,0.00,,2013-04-18 14:52:00,
2013-04-18 08:02:00,56.0,33.0,30.30,ENE,77,1.0,4.0,41,0.00,,,0.00,,2013-04-18 15:02:00,
2013-04-18 08:12:00,56.0,33.0,30.30,ENE,77,1.0,4.0,41,0.00,,,0.00,,2013-04-18 15:12:00,
2013-04-18 08:22:00,56.0,33.0,30.30,ESE,113,1.0,5.0,42,0.00,,,0.00,,2013-04-18 15:22:00,
2013-04-18 08:33:00,58.0,32.0,30.30,ESE,105,2.0,4.0,37,0.00,,,0.00,,2013-04-18 15:33:00,
2013-04-18 08:42:00,60.0,33.0,30.30,East,82,1.0,4.0,36,0.00,,,0.00,,2013-04-18 15:42:00,
2013-04-18 09:03:00,62.0,33.0,30.30,SSW,203,1.0,6.0,33,0.00,,,0.00,,2013-04-18 16:03:00,
2013-04-18 09:13:00,63.0,37.0,30.30,WSW,241,1.0,4.0,38,0.00,,,0.00,,2013-04-18 16:13:00,
2013-04-18 09:22:00,63.0,37.0,30.30,WSW,241,1.0,4.0,38,0.00,,,0.00,,2013-04-18 16:22:00,
2013-04-18 09:33:00,63.0,31.0,30.30,West,262,1.0,6.0,30,0.00,,,0.00,,2013-04-18 16:33:00,
2013-04-18 09:42:00,64.0,38.0,30.30,ESE,112,1.0,6.0,38,0.00,,,0.00,,2013-04-18 16:42:00,
2013-04-18 09:52:00,64.0,38.0,30.30,ESE,112,1.0,6.0,38,0.00,,,0.00,,2013-04-18 16:52:00,
2013-04-18 10:02:00,65.0,34.0,30.29,SW,218,2.0,6.0,31,0.00,,,0.00,,2013-04-18 17:02:00,
2013-04-18 10:12:00,65.0,34.0,30.29,SW,218,2.0,6.0,31,0.00,,,0.00,,2013-04-18 17:12:00,
2013-04-18 10:22:00,66.0,32.0,30.30,NW,307,2.0,8.0,28,0.00,,,0.00,,2013-04-18 17:22:00,
2013-04-18 10:33:00,66.0,31.0,30.30,WSW,239,2.0,5.0,27,0.00,,,0.00,,2013-04-18 17:33:00,
2013-04-18 10:42:00,66.0,31.0,30.30,WSW,239,2.0,5.0,27,0.00,,,0.00,,2013-04-18 17:42:00,
2013-04-18 10:52:00,67.0,33.0,30.31,SE,137,2.0,6.0,28,0.00,,,0.00,,2013-04-18 17:52:00,
2013-04-18 11:12:00,69.0,33.0,30.31,WSW,247,3.0,6.0,26,0.00,,,0.00,,2013-04-18 18:12:00,
2013-04-18 11:22:00,69.0,33.0,30.31,WSW,247,3.0,6.0,26,0.00,,,0.00,,2013-04-18 18:22:00,
2013-04-18 11:32:00,70.0,34.0,30.31,WSW,245,2.0,4.0,26,0.00,,,0.00,,2013-04-18 18:32:00,
2013-04-18 11:42:00,70.0,34.0,30.31,WSW,245,2.0,4.0,26,0.00,,,0.00,,2013-04-18 18:42:00,
2013-04-18 11:52:00,71.0,34.0,30.31,WNW,294,3.0,5.0,26,0.00,,,0.00,,2013-04-18 18:52:00,
2013-04-18 12:02:00,71.0,33.0,30.30,SE,136,1.0,5.0,25,0.00,,,0.00,,2013-04-18 19:02:00,
2013-04-18 12:12:00,71.0,33.0,30.30,SE,136,1.0,5.0,25,0.00,,,0.00,,2013-04-18 19:12:00,
2013-04-18 12:22:00,72.0,33.0,30.30,ESE,119,2.0,6.0,24,0.00,,,0.00,,2013-04-18 19:22:00,
2013-04-18 12:32:00,72.0,31.0,30.30,North,355,3.0,8.0,22,0.00,,,0.00,,2013-04-18 19:32:00,
2013-04-18 12:42:00,72.0,31.0,30.30,North,355,3.0,8.0,22,0.00,,,0.00,,2013-04-18 19:42:00,
2013-04-18 12:52:00,73.0,34.0,30.30,SSE,157,2.0,7.0,24,0.00,,,0.00,,2013-04-18 19:52:00,
2013-04-18 13:02:00,73.0,32.0,30.29,SSW,211,3.0,7.0,22,0.00,,,0.00,,2013-04-18 20:02:00,
2013-04-18 13:12:00,73.0,32.0,30.29,SSW,211,3.0,7.0,22,0.00,,,0.00,,2013-04-18 20:12:00,
2013-04-18 13:22:00,73.0,35.0,30.29,ESE,111,2.0,8.0,25,0.00,,,0.00,,2013-04-18 20:22:00,
2013-04-18 13:32:00,74.0,34.0,30.29,SSE,153,2.0,5.0,23,0.00,,,0.00,,2013-04-18 20:32:00,
2013-04-18 13:42:00,74.0,35.0,30.28,SSW,209,1.0,6.0,24,0.00,,,0.00,,2013-04-18 20:42:00,
2013-04-18 13:52:00,74.0,35.0,30.28,SSW,209,1.0,6.0,24,0.00,,,0.00,,2013-04-18 20:52:00,
2013-04-18 14:02:00,74.0,33.0,30.28,SSW,193,1.0,7.0,22,0.00,,,0.00,,2013-04-18 21:02:00,
2013-04-18 14:12:00,74.0,33.0,30.28,SSW,193,1.0,7.0,22,0.00,,,0.00,,2013-04-18 21:12:00,
2013-04-18 14:22:00,75.0,34.0,30.27,ESE,107,1.0,4.0,22,0.00,,,0.00,,2013-04-18 21:22:00,
2013-04-18 14:32:00,75.0,34.0,30.27,ENE,78,2.0,5.0,22,0.00,,,0.00,,2013-04-18 21:32:00,
2013-04-18 14:43:00,76.0,33.0,30.27,SW,223,2.0,4.0,21,0.00,,,0.00,,2013-04-18 21:43:00,
2013-04-18 14:52:00,76.0,33.0,30.27,SW,223,2.0,4.0,21,0.00,,,0.00,,2013-04-18 21:52:00,
2013-04-18 15:02:00,77.0,35.0,30.26,SSW,204,3.0,6.0,22,0.00,,,0.00,,2013-04-18 22:02:00,
2013-04-18 15:12:00,77.0,35.0,30.26,WNW,290,2.0,4.0,22,0.00,,,0.00,,2013-04-18 22:12:00,
2013-04-18 15:22:00,77.0,35.0,30.26,WNW,290,2.0,4.0,22,0.00,,,0.00,,2013-04-18 22:22:00,
2013-04-18 15:32:00,76.0,41.0,30.26,WNW,288,3.0,9.0,28,0.00,,,0.00,,2013-04-18 22:32:00,
2013-04-18 15:42:00,75.0,40.0,30.25,WNW,295,3.0,8.0,28,0.00,,,0.00,,2013-04-18 22:42:00,
2013-04-18 15:52:00,75.0,40.0,30.25,WNW,295,3.0,8.0,28,0.00,,,0.00,,2013-04-18 22:52:00,
2013-04-18 16:03:00,75.0,41.0,30.25,West,277,4.0,7.0,29,0.00,,,0.00,,2013-04-18 23:03:00,
2013-04-18 16:11:00,75.0,41.0,30.25,West,277,4.0,7.0,29,0.00,,,0.00,,2013-04-18 23:11:00,
2013-04-18 16:21:00,74.0,41.0,30.25,NW,317,3.0,7.0,30,0.00,,,0.00,,2013-04-18 23:21:00,
2013-04-18 16:32:00,73.0,41.0,30.25,West,279,3.0,8.0,31,0.00,,,0.00,,2013-04-18 23:32:00,
2013-04-18 16:42:00,73.0,41.0,30.25,WNW,293,2.0,7.0,31,0.00,,,0.00,,2013-04-18 23:42:00,
2013-04-18 16:52:00,73.0,41.0,30.25,WNW,293,2.0,7.0,31,0.00,,,0.00,,2013-04-18 23:52:00,
2013-04-18 17:01:00,73.0,41.0,30.24,WNW,302,2.0,8.0,31,0.00,,,0.00,,2013-04-19 00:01:00,
2013-04-18 17:11:00,73.0,41.0,30.24,WNW,302,2.0,8.0,31,0.00,,,0.00,,2013-04-19 00:11:00,
2013-04-18 17:21:00,72.0,40.0,30.24,SW,232,2.0,7.0,31,0.00,,,0.00,,2013-04-19 00:21:00,
2013-04-18 17:32:00,72.0,40.0,30.24,SW,232,2.0,7.0,31,0.00,,,0.00,,2013-04-19 00:32:00,
2013-04-18 17:42:00,72.0,40.0,30.24,SW,232,2.0,7.0,31,0.00,,,0.00,,2013-04-19 00:42:00,
2013-04-18 17:51:00,72.0,40.0,30.24,SW,232,2.0,7.0,31,0.00,,,0.00,,2013-04-19 00:51:00,
2013-04-18 19:21:00,66.0,41.0,30.24,WSW,252,2.0,4.0,40,0.00,,,0.00,,2013-04-19 02:21:00,
2013-04-18 19:32:00,65.0,41.0,30.24,WNW,292,1.0,2.0,42,0.00,,,0.00,,2013-04-19 02:32:00,
2013-04-18 19:42:00,65.0,41.0,30.24,WNW,292,1.0,2.0,42,0.00,,,0.00,,2013-04-19 02:42:00,
2013-04-18 19:51:00,64.0,41.0,30.24,WNW,290,0.0,2.0,43,0.00,,,0.00,,2013-04-19 02:51:00,
2013-04-18 20:01:00,63.0,41.0,30.24,West,271,1.0,1.0,44,0.00,,,0.00,,2013-04-19 03:01:00,
2013-04-18 20:11:00,63.0,41.0,30.24,West,271,1.0,1.0,44,0.00,,,0.00,,2013-04-19 03:11:00,
2013-04-18 20:21:00,62.0,40.0,30.24,West,273,1.0,1.0,45,0.00,,,0.00,,2013-04-19 03:21:00,
2013-04-18 20:32:00,62.0,40.0,30.24,West,275,1.0,2.0,45,0.00,,,0.00,,2013-04-19 03:32:00,
2013-04-18 20:43:00,62.0,40.0,30.24,West,275,1.0,2.0,45,0.00,,,0.00,,2013-04-19 03:43:00,
2013-04-18 20:53:00,61.0,40.0,30.24,WNW,282,1.0,2.0,45,0.00,,,0.00,,2013-04-19 03:53:00,
2013-04-18 21:03:00,61.0,40.0,30.25,WNW,282,1.0,1.0,45,0.00,,,0.00,,2013-04-19 04:03:00,
2013-04-18 21:12:00,61.0,40.0,30.25,WNW,282,1.0,1.0,45,0.00,,,0.00,,2013-04-19 04:12:00,
2013-04-18 21:23:00,60.0,38.0,30.26,WNW,282,0.0,1.0,44,0.00,,,0.00,,2013-04-19 04:23:00,
2013-04-18 21:32:00,60.0,37.0,30.26,WNW,282,0.0,0.0,43,0.00,,,0.00,,2013-04-19 04:32:00,
2013-04-18 21:43:00,60.0,37.0,30.26,WNW,282,0.0,0.0,43,0.00,,,0.00,,2013-04-19 04:43:00,
2013-04-18 21:52:00,61.0,38.0,30.27,WNW,282,0.0,0.0,43,0.00,,,0.00,,2013-04-19 04:52:00,
2013-04-18 22:03:00,61.0,38.0,30.27,WNW,282,0.0,0.0,43,0.00,,,0.00,,2013-04-19 05:03:00,
2013-04-18 22:11:00,61.0,38.0,30.27,WNW,282,0.0,0.0,43,0.00,,,0.00,,2013-04-19 05:11:00,
2013-04-18 22:22:00,60.0,37.0,30.27,WNW,282,0.0,0.0,43,0.00,,,0.00,,2013-04-19 05:22:00,
2013-04-18 22:32:00,60.0,39.0,30.27,WNW,282,0.0,0.0,45,0.00,,,0.00,,2013-04-19 05:32:00,
2013-04-18 22:42:00,60.0,39.0,30.27,WNW,282,0.0,0.0,45,0.00,,,0.00,,2013-04-19 05:42:00,
2013-04-18 22:51:00,60.0,40.0,30.26,WNW,282,0.0,0.0,47,0.00,,,0.00,,2013-04-19 05:51:00,
2013-04-18 23:01:00,59.0,41.0,30.26,WNW,282,0.0,0.0,51,0.00,,,0.00,,2013-04-19 06:01:00,
2013-04-18 23:11:00,59.0,41.0,30.26,WNW,282,0.0,0.0,51,0.00,,,0.00,,2013-04-19 06:11:00,
2013-04-18 23:22:00,59.0,43.0,30.25,WNW,286,0.0,0.0,55,0.00,,,0.00,,2013-04-19 06:22:00,
2013-04-18 23:31:00,58.0,43.0,30.26,WNW,286,0.0,0.0,57,0.00,,,0.00,,2013-04-19 06:31:00,
2013-04-18 23:42:00,58.0,43.0,30.26,WNW,286,0.0,0.0,57,0.00,,,0.00,,2013-04-19 06:42:00,
2013-04-18 23:52:00,58.0,44.0,30.26,WNW,297,0.0,0.0,59,0.00,,,0.00,,2013-04-19 06:52:00,